Content
SEND FEEDBACK

Daily
Averages
Monthly
Summary
United States of America

SKELLYTOWN, TEXAS


Home > North America > United States > Texas
Elevation: 3238 feet     Latitude: 35 32N     Longitude: 100 59W

WEATHER
 
SELECT A DAY
Number of Records: 265,970;   Date Range: 11/19/03 - 11/26/14
 
SHARE

PRINT THIS DATA

[ ← Previous Day ]
WEATHER ALMANAC - JANUARY 31, 2013
[ Next Day → ]
[ °C ]   °F
Weather ElementAverageHighLow
Temperature37.1 °F55.4 °F (12:55 pm)26.6 °F (1:55 am)
Dewpoint20 °F23 °F (8:55 am)12.2 °F (12:35 am)
Humidity54.1 %80 % (11:15 pm)21 % (1:55 pm)
Barometer30.10 in30.26 in (11:15 pm)29.99 in (3:55 am)
Wind Speed12.3 mph19.6 mph (2:15 pm)
Wind Gust24.2 mph (2:15 pm)
Weather ElementAverage
Visibility10 mi
Wind DirectionSSW (195.1 °)

Weather ElementTotal
Precipitation---
Heating Degree Days24 (Base 65)
Averaged from 65 records on January 31, 2013
WEATHER CONDITIONS BREAKOUT
WIND DIRECTION BREAKOUT
WEATHER BY HOUR - JANUARY 31, 2013
[ °C ]   °F
Local TimeTemperatureDewpointHumidityBarometerVisibilityWind DirectionWind SpeedGust SpeedPrecipitationEventsConditions
12:35 AM30.2 °F12.2 °F47 %30.01 in10.0 miSSW (210°)10.4 mphClear
12:55 AM30.2 °F12.2 °F47 %30.01 in10.0 miSW (220°)10.4 mphClear
1:15 AM28.4 °F12.2 °F51 %30.00 in10.0 miSSW (210°)11.5 mphClear
1:35 AM28.4 °F14.0 °F55 %30.00 in10.0 miSW (220°)11.5 mphClear
1:55 AM26.6 °F15.8 °F64 %30.00 in10.0 miSW (230°)11.5 mphClear
2:15 AM28.4 °F17.6 °F64 %30.00 in10.0 miWSW (250°)11.5 mphClear
2:35 AM28.4 °F19.4 °F69 %30.00 in10.0 miWest (260°)11.5 mphClear
2:55 AM30.2 °F21.2 °F69 %30.00 in10.0 miWest (260°)12.7 mphClear
3:15 AM30.2 °F21.2 °F69 %30.00 in10.0 miWest (270°)11.5 mphClear
3:35 AM30.2 °F21.2 °F69 %30.00 in10.0 miWest (270°)11.5 mphClear
3:55 AM30.2 °F21.2 °F69 %29.99 in10.0 miWest (270°)11.5 mphClear
4:15 AM28.4 °F21.2 °F74 %30.00 in10.0 miWest (270°)12.7 mphClear
4:35 AM28.4 °F21.2 °F74 %29.99 in10.0 miWest (280°)12.7 mphClear
4:55 AM28.4 °F21.2 °F74 %29.99 in10.0 miWest (270°)11.5 mphClear
5:15 AM28.4 °F21.2 °F74 %29.99 in10.0 miWest (270°)11.5 mphClear
5:35 AM28.4 °F21.2 °F74 %30.00 in10.0 miWest (260°)13.8 mphClear
5:55 AM28.4 °F21.2 °F74 %30.00 in10.0 miWest (270°)13.8 mphClear
6:15 AM28.4 °F21.2 °F74 %30.00 in10.0 miWest (270°)12.7 mphClear
6:35 AM26.6 °F19.4 °F74 %30.01 in10.0 miWest (270°)11.5 mphClear
6:55 AM28.4 °F19.4 °F69 %30.01 in10.0 miWest (270°)11.5 mphClear
7:15 AM28.4 °F21.2 °F74 %30.02 in10.0 miWest (280°)11.5 mphClear
7:35 AM28.4 °F19.4 °F69 %30.03 in10.0 miWest (280°)9.2 mphClear
7:55 AM28.4 °F19.4 °F69 %30.04 in10.0 miWest (270°)10.4 mphClear
8:15 AM30.2 °F21.2 °F69 %30.04 in10.0 miWest (280°)11.5 mphClear
8:35 AM32.0 °F21.2 °F64 %30.06 in10.0 miWest (280°)10.4 mphClear
8:55 AM32.0 °F23.0 °F69 %30.07 in10.0 miWest (280°)10.4 mphClear
9:15 AM33.8 °F23.0 °F65 %30.08 in10.0 miWest (280°)10.4 mphClear
9:35 AM35.6 °F21.2 °F56 %30.08 in10.0 miWest (280°)10.4 mphClear
9:55 AM39.2 °F21.2 °F49 %30.08 in10.0 miWNW (290°)10.4 mphClear
10:15 AM41.0 °F21.2 °F45 %30.11 in10.0 miWNW (290°)12.7 mphClear
10:35 AM42.8 °F21.2 °F42 %30.11 in10.0 miWNW (290°)12.7 mphClear
10:55 AM44.6 °F21.2 °F39 %30.11 in10.0 miWest (270°)8.1 mphClear
11:15 AM46.4 °F21.2 °F37 %30.12 in10.0 miWNW (290°)6.9 mphClear
11:35 AM50.0 °F21.2 °F32 %30.11 in10.0 miWNW (300°)6.9 mphClear
11:55 AM51.8 °F19.4 °F28 %30.11 in10.0 miNW (310°)10.4 mphClear
12:15 PM51.8 °F19.4 °F28 %30.11 in10.0 miNW (310°)12.7 mphClear
12:35 PM53.6 °F17.6 °F24 %30.11 in10.0 miNNW (330°)12.7 mph17.3 mphClear
12:55 PM55.4 °F19.4 °F25 %30.09 in10.0 miNNE (20°)12.7 mphClear
1:15 PM53.6 °F19.4 °F26 %30.09 in10.0 miNorth (360°)18.4 mph23.0 mphClear
1:35 PM55.4 °F17.6 °F23 %30.10 in10.0 miNNE (20°)15.0 mph19.6 mphClear
1:55 PM55.4 °F15.8 °F21 %30.11 in10.0 miNorth (360°)17.3 mph23.0 mphClear
2:15 PM53.6 °F17.6 °F24 %30.10 in10.0 miNorth (10°)19.6 mph24.2 mphClear
2:35 PM53.6 °F17.6 °F24 %30.11 in10.0 miNorth (10°)15.0 mph23.0 mphClear
3:15 PM51.8 °F17.6 °F26 %30.12 in10.0 miNNE (20°)16.1 mph20.7 mphClear
3:35 PM51.8 °F19.4 °F28 %30.14 in10.0 miNE (40°)15.0 mph21.9 mphClear
3:55 PM50.0 °F19.4 °F30 %30.16 in10.0 miNE (40°)13.8 mph18.4 mphClear
4:15 PM50.0 °F19.4 °F30 %30.17 in10.0 miNE (40°)15.0 mphClear
4:35 PM48.2 °F19.4 °F32 %30.18 in10.0 miENE (60°)16.1 mph19.6 mphClear
4:55 PM46.4 °F19.4 °F34 %30.19 in10.0 miNE (50°)13.8 mphClear
5:15 PM46.4 °F19.4 °F34 %30.21 in10.0 miENE (60°)12.7 mphClear
5:35 PM44.6 °F21.2 °F39 %30.22 in10.0 miENE (70°)10.4 mphClear
5:55 PM42.8 °F21.2 °F42 %30.22 in10.0 miEast (80°)8.1 mphClear
6:15 PM39.2 °F21.2 °F49 %30.23 in10.0 miEast (90°)9.2 mphClear
6:35 PM35.6 °F21.2 °F56 %30.23 in10.0 miEast (90°)8.1 mphClear
7:15 PM32.0 °F21.2 °F64 %30.24 in10.0 miEast (90°)10.4 mphClear
7:35 PM32.0 °F21.2 °F64 %30.24 in10.0 miEast (90°)11.5 mphClear
8:15 PM32.0 °F21.2 °F64 %30.25 in10.0 miEast (90°)11.5 mphClear
8:35 PM32.0 °F23.0 °F69 %30.24 in10.0 miEast (100°)12.7 mphClear
9:15 PM32.0 °F23.0 °F69 %30.24 in10.0 miESE (110°)13.8 mphClear
9:35 PM30.2 °F23.0 °F75 %30.24 in10.0 miESE (120°)13.8 mphClear
9:55 PM30.2 °F23.0 °F75 %30.24 in10.0 miSE (130°)15.0 mphClear
10:15 PM30.2 °F23.0 °F75 %30.24 in10.0 miESE (120°)15.0 mph21.9 mphClear
10:35 PM28.4 °F21.2 °F74 %30.24 in10.0 miSE (130°)15.0 mphClear
10:55 PM28.4 °F21.2 °F74 %30.25 in10.0 miSE (130°)16.1 mph19.6 mphClear
11:15 PM26.6 °F21.2 °F80 %30.26 in10.0 miSE (140°)15.0 mphClear
Hourly data recorded from KPPA, located miles away from Skellytown, Texas







STORIES FROM OUR PARTNERS